• In Hungary
  • List of Countries
  • For 7 days
  • Water Temperature
  • Satellite Maps
  • Weather Map
  • News
  • Weather Widgets
  • user-avatar
    Login

    Hourly Weather Cleveland

    Today, 23 February, Friday

    Time Temperature Precipitation Wind Pressure Humidity
    00:00 +2°C° 0 mm 1 mps 744 mmHg 94%
    01:00 +1°C° 0 mm 2 mps 744 mmHg 94%
    02:00 +1°C° 0 mm 2 mps 744 mmHg 95%
    03:00 +1°C° 0 mm 2 mps 744 mmHg 95%
    04:00 +2°C° 0 mm 1 mps 745 mmHg 94%
    05:00 +1°C° 0 mm 1 mps 745 mmHg 94%
    06:00 +1°C° 0 mm 1 mps 745 mmHg 94%
    07:00 +2°C° 0 mm 1 mps 745 mmHg 92%
    08:00 +3°C° 0 mm 1 mps 745 mmHg 89%
    09:00 +4°C° 0 mm 1 mps 745 mmHg 87%
    10:00 +4°C° 0 mm 2 mps 745 mmHg 81%
    11:00 +6°C° 0 mm 2 mps 746 mmHg 76%
    12:00 +8°C° 0 mm 3 mps 746 mmHg 71%
    13:00 +8°C° 0 mm 2 mps 745 mmHg 72%
    14:00 +8°C° 0 mm 2 mps 744 mmHg 73%
    15:00 +9°C° 0 mm 2 mps 743 mmHg 74%
    16:00 +8°C° 0.3 mm 2 mps 743 mmHg 79%
    17:00 +8°C° 0.3 mm 2 mps 743 mmHg 84%
    18:00 +7°C° 0.3 mm 2 mps 742 mmHg 90%
    19:00 +7°C° 0.8 mm 2 mps 742 mmHg 92%
    20:00 +7°C° 0.8 mm 3 mps 742 mmHg 93%
    21:00 +7°C° 0.8 mm 3 mps 741 mmHg 95%
    22:00 +7°C° 0.4 mm 3 mps 741 mmHg 96%
    23:00 +8°C° 0.4 mm 2 mps 740 mmHg 97%

    Tomorrow, 24 February, Saturday

    Time Temperature Precipitation Wind Pressure Humidity
    00:00 +8°C° 0.4 mm 2 mps 740 mmHg 98%
    01:00 +8°C° 0.1 mm 2 mps 739 mmHg 98%
    02:00 +8°C° 0.1 mm 2 mps 739 mmHg 98%
    03:00 +8°C° 0.1 mm 2 mps 738 mmHg 98%
    04:00 +8°C° 0.1 mm 2 mps 737 mmHg 98%
    05:00 +8°C° 0.1 mm 2 mps 736 mmHg 98%
    06:00 +8°C° 0.1 mm 2 mps 736 mmHg 98%
    07:00 +9°C° 0.9 mm 2 mps 735 mmHg 98%
    08:00 +10°C° 0.9 mm 2 mps 734 mmHg 98%
    09:00 +10°C° 0.9 mm 3 mps 734 mmHg 98%
    10:00 +12°C° 0.9 mm 4 mps 733 mmHg 95%
    11:00 +14°C° 0.9 mm 5 mps 732 mmHg 92%
    12:00 +16°C° 0.9 mm 6 mps 731 mmHg 89%
    13:00 +17°C° 0.1 mm 8 mps 730 mmHg 73%
    14:00 +18°C° 0.1 mm 9 mps 730 mmHg 57%
    15:00 +19°C° 0.1 mm 11 mps 729 mmHg 41%
    16:00 +17°C° 0 mm 10 mps 730 mmHg 42%
    17:00 +15°C° 0 mm 9 mps 731 mmHg 42%
    18:00 +12°C° 0 mm 8 mps 732 mmHg 43%
    19:00 +10°C° 0 mm 8 mps 733 mmHg 48%
    20:00 +7°C° 0 mm 8 mps 735 mmHg 53%
    21:00 +5°C° 0 mm 9 mps 736 mmHg 58%
    22:00 +4°C° 0 mm 7 mps 737 mmHg 61%
    23:00 +3°C° 0 mm 5 mps 737 mmHg 64%

    Day after tomorrow, 25 February, Sunday

    Time Temperature Precipitation Wind Pressure Humidity
    00:00 +3°C° 0 mm 3 mps 738 mmHg 67%
    01:00 +3°C° 0 mm 3 mps 738 mmHg 66%
    02:00 +2°C° 0 mm 3 mps 739 mmHg 65%
    03:00 +2°C° 0 mm 3 mps 739 mmHg 65%
    04:00 +2°C° 0 mm 2 mps 739 mmHg 63%
    05:00 +2°C° 0 mm 2 mps 739 mmHg 61%
    06:00 +1°C° 0 mm 2 mps 739 mmHg 59%
    07:00 +2°C° 0 mm 2 mps 740 mmHg 55%
    08:00 +4°C° 0 mm 1 mps 740 mmHg 51%
    09:00 +5°C° 0 mm 1 mps 741 mmHg 47%
    10:00 +6°C° 0 mm 2 mps 741 mmHg 43%
    11:00 +8°C° 0 mm 2 mps 741 mmHg 38%
    12:00 +10°C° 0 mm 3 mps 740 mmHg 34%
    13:00 +11°C° 0 mm 3 mps 740 mmHg 33%
    14:00 +12°C° 0 mm 4 mps 739 mmHg 32%
    15:00 +14°C° 0 mm 4 mps 739 mmHg 31%
    16:00 +13°C° 0 mm 3 mps 739 mmHg 36%
    17:00 +13°C° 0 mm 2 mps 739 mmHg 40%
    18:00 +11°C° 0 mm 0 mps 739 mmHg 45%
    19:00 +11°C° 0 mm 1 mps 740 mmHg 46%
    20:00 +10°C° 0 mm 1 mps 741 mmHg 47%
    21:00 +9°C° 0 mm 2 mps 741 mmHg 48%
    22:00 +8°C° 0 mm 2 mps 742 mmHg 49%
    23:00 +7°C° 0 mm 2 mps 742 mmHg 51%

    26 February, Monday

    Time Temperature Precipitation Wind Pressure Humidity
    00:00 +8°C° 0 mm 1 mps 743 mmHg 52%
    01:00 +7°C° 0 mm 1 mps 743 mmHg 52%
    02:00 +7°C° 0 mm 1 mps 743 mmHg 52%
    03:00 +7°C° 0 mm 1 mps 743 mmHg 52%
    04:00 +6°C° 0 mm 1 mps 743 mmHg 52%
    05:00 +6°C° 0 mm 1 mps 743 mmHg 52%
    06:00 +6°C° 0 mm 1 mps 744 mmHg 53%
    07:00 +6°C° 0 mm 2 mps 744 mmHg 52%
    08:00 +8°C° 0 mm 2 mps 745 mmHg 51%
    09:00 +9°C° 0 mm 3 mps 745 mmHg 50%
    10:00 +11°C° 0 mm 4 mps 745 mmHg 47%
    11:00 +13°C° 0 mm 4 mps 744 mmHg 44%
    12:00 +15°C° 0 mm 5 mps 744 mmHg 40%
    13:00 +16°C° 0 mm 5 mps 744 mmHg 40%
    14:00 +16°C° 0 mm 6 mps 743 mmHg 40%
    15:00 +17°C° 0 mm 6 mps 742 mmHg 39%
    16:00 +16°C° 0 mm 5 mps 742 mmHg 44%
    17:00 +15°C° 0 mm 5 mps 742 mmHg 49%
    18:00 +14°C° 0 mm 4 mps 741 mmHg 54%
    19:00 +13°C° 0 mm 4 mps 742 mmHg 58%
    20:00 +12°C° 0 mm 4 mps 742 mmHg 62%
    21:00 +11°C° 0 mm 4 mps 742 mmHg 67%
    22:00 +11°C° 0 mm 4 mps 742 mmHg 71%
    23:00 +10°C° 0 mm 4 mps 741 mmHg 76%

    27 February, Tuesday

    Time Temperature Precipitation Wind Pressure Humidity
    00:00 +10°C° 0 mm 4 mps 741 mmHg 81%
    01:00 +10°C° 0 mm 4 mps 741 mmHg 81%
    02:00 +8°C° 0 mm 4 mps 740 mmHg 82%
    03:00 +8°C° 0 mm 5 mps 740 mmHg 83%
    04:00 +8°C° 0 mm 5 mps 740 mmHg 84%
    05:00 +8°C° 0 mm 5 mps 740 mmHg 85%
    06:00 +8°C° 0 mm 5 mps 740 mmHg 86%
    07:00 +9°C° 0 mm 5 mps 740 mmHg 83%
    08:00 +10°C° 0 mm 6 mps 740 mmHg 79%
    09:00 +11°C° 0 mm 7 mps 740 mmHg 76%
    10:00 +12°C° 0 mm 7 mps 740 mmHg 74%
    11:00 +14°C° 0 mm 6 mps 739 mmHg 73%
    12:00 +15°C° 0 mm 6 mps 739 mmHg 71%
    13:00 +15°C° 0.4 mm 6 mps 738 mmHg 75%
    14:00 +15°C° 0.4 mm 6 mps 737 mmHg 78%
    15:00 +14°C° 0.4 mm 6 mps 736 mmHg 81%
    16:00 +14°C° 0.3 mm 6 mps 736 mmHg 84%
    17:00 +14°C° 0.3 mm 5 mps 735 mmHg 87%
    18:00 +14°C° 0.3 mm 5 mps 735 mmHg 90%
    19:00 +14°C° 0 mm 5 mps 735 mmHg 92%
    20:00 +14°C° 0 mm 5 mps 735 mmHg 93%
    21:00 +14°C° 0 mm 5 mps 734 mmHg 94%
    22:00 +14°C° 0 mm 5 mps 734 mmHg 94%
    23:00 +14°C° 0 mm 5 mps 734 mmHg 95%

    28 February, Wednesday

    Time Temperature Precipitation Wind Pressure Humidity
    00:00 +15°C° 0 mm 5 mps 733 mmHg 95%
    01:00 +15°C° 0 mm 5 mps 733 mmHg 95%
    02:00 +15°C° 0 mm 5 mps 732 mmHg 96%
    03:00 +16°C° 0 mm 5 mps 732 mmHg 96%
    04:00 +16°C° 0.8 mm 5 mps 731 mmHg 95%
    05:00 +16°C° 0.8 mm 5 mps 731 mmHg 93%
    06:00 +16°C° 0.8 mm 5 mps 731 mmHg 92%
    07:00 +17°C° 0.3 mm 6 mps 730 mmHg 87%
    08:00 +17°C° 0.3 mm 6 mps 730 mmHg 82%
    09:00 +18°C° 0.3 mm 7 mps 729 mmHg 77%
    10:00 +20°C° 0.5 mm 8 mps 729 mmHg 71%
    11:00 +21°C° 0.5 mm 9 mps 728 mmHg 65%
    12:00 +22°C° 0.5 mm 10 mps 727 mmHg 58%
    13:00 +22°C° 0 mm 11 mps 727 mmHg 48%
    14:00 +22°C° 0 mm 11 mps 726 mmHg 37%
    15:00 +22°C° 0 mm 11 mps 726 mmHg 27%
    16:00 +19°C° 0 mm 10 mps 726 mmHg 31%
    17:00 +18°C° 0 mm 9 mps 727 mmHg 35%
    18:00 +17°C° 0 mm 8 mps 728 mmHg 39%
    19:00 +13°C° 0 mm 8 mps 729 mmHg 45%
    20:00 +11°C° 0 mm 8 mps 730 mmHg 50%
    21:00 +7°C° 0 mm 8 mps 731 mmHg 56%
    22:00 +6°C° 0 mm 8 mps 732 mmHg 57%
    23:00 +5°C° 0 mm 8 mps 733 mmHg 58%
    Show more